Regional Weather Roundup
Issued by NWS

Home | Current Version | Previous Version | Text Only | Print | Product List | Glossary Off
Versions: 1 2 3 4 5 6 7 8 9 10 11 12 13 14 15 16 17 18 19 20 21 22 23 24 25 26 27 28 29 30 31 32 33 34 35 36 37 38 39 40 41 42 43 44 45 46 47 48 49 50

000
ASUS45 KBOI 040510
RWRID

IDAHO REGIONAL WEATHER ROUNDUP
NATIONAL WEATHER SERVICE BOISE ID
1100 PM MDT THU SEP 03 2015

NOTE: "FAIR" INDICATES FEW OR NO CLOUDS BELOW 12000 FEET
WITH NO SIGNIFICANT WEATHER AND/OR OBSTRUCTIONS TO VISIBILITY

IDZ012-014-040600-
SOUTHWEST IDAHO


CITY           SKY/WX    TMP DP  RH WIND       PRES   REMARKS
BOISE          MOCLDY    61  40  45 NW6       29.85S
CALDWELL       MOCLDY    55  36  47 W7        29.87F
MOUNTAIN HOME  MOCLDY    59  37  44 W12       29.85F
$$

IDZ016-017-040600-
SOUTHCENTRAL IDAHO


CITY           SKY/WX    TMP DP  RH WIND       PRES   REMARKS
BURLEY         CLEAR     57  40  52 SW10      29.86S
JEROME         CLOUDY    58  39  49 SW9       29.87S
TWIN FALLS     MOCLDY    60  37  42 SW12      29.88S
$$

IDZ019>023-040600-
SOUTHEAST IDAHO


CITY           SKY/WX    TMP DP  RH WIND       PRES   REMARKS
IDAHO FALLS    MOCLDY    65  44  46 E7        29.84F
POCATELLO      CLEAR     58  47  66 SW12      29.86R
REXBURG        CLOUDY    63  45  51 SE10G22   29.86F
$$

IDZ006-010-011-018-031-032-040600-
CENTRAL IDAHO MOUNTAINS


CITY           SKY/WX    TMP DP  RH WIND       PRES   REMARKS
MCCALL         PTCLDY    44  40  85 NW6       29.94S
HAILEY         CLOUDY    57  43  58 NW5       29.90S
STANLEY          N/A     48  34  58 CALM      30.01R
SALMON         CLOUDY    54  39  58 SE5       29.93R
CHALLIS        CLOUDY    56  40  55 N10       29.94R
$$

IDZ002-004-006-007-026-040600-
NORTHERN IDAHO


CITY           SKY/WX    TMP DP  RH WIND       PRES   REMARKS
LEWISTON       CLEAR     53  42  66 SE3       29.94R
LOWELL           N/A     51  48  89 CALM      29.99S
COEUR D`ALENE  CLEAR     48  36  61 CALM      29.94S
MULLAN PASS    LGT RAIN  40  35  83 CALM      30.00S
$$



USA.gov is the U.S. government's official web portal to all federal, state and local government web resources and services.